Hinesville, GA

10:46 PM EDT on August 30, 2016 (GMT -0400)
Wright Army Air Field

Weather History for KLHW - October, 2013

Change the Weather History Date:

Wednesday, October 16, 2013

  Actual Average Record
Temperature  
Mean Temperature 70 °F -  
Max Temperature 81 °F 81 °F 90 °F (1972)
Min Temperature 58 °F 58 °F 38 °F (1978)
Cooling Degree Days 4    
Growing Degree Days 20 (Base 50)    
Moisture  
Dew Point 64 °F    
Average Humidity 88    
Maximum Humidity 100    
Minimum Humidity 61    
Precipitation  
Precipitation 0.00 in - - ()
Sea Level Pressure  
Sea Level Pressure 30.00 in    
Wind  
Wind Speed 1 mph (ENE)    
Max Wind Speed 6 mph    
Max Gust Speed -    
Visibility 10 miles    
Events      
Averages and records for this station are not official NWS values.
T = Trace of Precipitation, MM = Missing Value Source: NWS Daily Summary

Daily Weather History Graph

Daily Weather History Graph

Search for Another Location

Airport or City:

Trip Planner

Search our weather history database for the weather conditions in past years. The results will help you decide how hot, cold, wet, or windy it might be!

Date:

Astronomy

Oct. 16, 2013 Rise Set
Actual Time 7:30 AM EDT 6:52 PM EDT
Civil Twilight 7:05 AM EDT 7:17 PM EDT
Nautical Twilight 6:37 AM EDT 7:45 PM EDT
Astronomical Twilight 6:09 AM EDT 8:13 PM EDT
Moon 5:25 PM EDT (10/16) 5:04 AM EDT (10/16)
Length of Visible Light 12h 11m
Length of Day
11h 22m
Waxing Gibbous, 94% of the Moon is Illuminated
Oct 16
Waxing Gibbous
Oct 18
Full
Oct 26
Last Quarter
Nov 3
New
Nov 10
First Quarter

Hourly Weather History & Observations

Time (EDT) Temp. Heat Index Dew Point Humidity Pressure Visibility Wind Dir Wind Speed Gust Speed Precip Events Conditions
12:58 AM 60.6 °F - 60.6 °F 100% 30.03 in 10.0 mi Calm Calm - N/A   Clear
1:58 AM 59.4 °F - 59.4 °F 100% 30.02 in 10.0 mi Calm Calm - N/A   Clear
2:58 AM 59.4 °F - 59.4 °F 100% 30.01 in 10.0 mi Calm Calm - N/A   Clear
3:58 AM 59.0 °F - 59.0 °F 100% 30.00 in 10.0 mi Calm Calm - N/A   Clear
4:58 AM 59.0 °F - 59.0 °F 100% 29.99 in 10.0 mi Calm Calm - N/A   Clear
5:58 AM 58.6 °F - 58.6 °F 100% 30.00 in 10.0 mi Calm Calm - N/A   Clear
6:58 AM 58.6 °F - 58.6 °F 100% 30.01 in 10.0 mi Calm Calm - N/A   Clear
7:58 AM 59.4 °F - 59.4 °F 100% 30.02 in 10.0 mi Calm Calm - N/A   Clear
8:58 AM 63.5 °F - 63.1 °F 99% 30.03 in 10.0 mi NNE 3.5 mph - N/A   Clear
9:58 AM 68.2 °F - 65.7 °F 92% 30.04 in 10.0 mi Variable 4.6 mph - N/A   Clear
10:58 AM 73.4 °F - 66.9 °F 80% 30.03 in 10.0 mi NE 5.8 mph - N/A   Clear
11:55 AM 75.2 °F - 68.0 °F 78% 30.02 in 10.0 mi Variable 2.3 mph - N/A   Clear
12:58 PM 77.5 °F - 66.7 °F 69% 30.01 in 10.0 mi Variable 4.6 mph - N/A   Clear
1:58 PM 79.0 °F - 66.0 °F 64% 29.99 in 10.0 mi Variable 2.3 mph - N/A   Mostly Cloudy
2:58 PM 80.6 °F 82.8 °F 66.6 °F 62% 29.97 in 10.0 mi Calm Calm - N/A   Clear
3:58 PM 81.0 °F 83.2 °F 66.2 °F 61% 29.96 in 10.0 mi NE 2.3 mph - N/A   Clear
4:58 PM 80.6 °F 82.7 °F 66.0 °F 61% 29.95 in 10.0 mi NNE 2.3 mph - N/A   Partly Cloudy
5:58 PM 79.3 °F - 67.1 °F 66% 29.96 in 10.0 mi ESE 3.5 mph - N/A   Clear
6:58 PM 72.7 °F - 69.3 °F 89% 29.97 in 10.0 mi ESE 5.8 mph - N/A   Clear
7:58 PM 69.8 °F - 67.8 °F 93% 29.98 in 10.0 mi ESE 3.5 mph - N/A   Clear
8:58 PM 68.7 °F - 67.3 °F 95% 29.99 in 10.0 mi Calm Calm - N/A   Clear
9:58 PM 66.2 °F - 66.2 °F 100% 30.00 in 10.0 mi Calm Calm - N/A   Clear
10:58 PM 64.9 °F - 64.9 °F 100% 30.01 in 10.0 mi Calm Calm - N/A   Clear
11:58 PM 63.5 °F - 63.5 °F 100% 29.98 in 10.0 mi Calm Calm - N/A   Clear